Simultaneous Nadir Overpasses (SNOs) Predictions

Prediction of SNOs between METOP-A and TERRA Satellite Orbit:

Table of predicted SNOs for the next 14.0 days since TLE Epoch: 8/2/2014
Index Date (METOP-A) Time (METOP-A) Lat,Lon (METOP-A) SZA (METOP-A ) Date (TERRA) Time (TERRA) Lat,Lon (TERRA) SZA (TERRA ) Distance(km) Time Diff (sec)
1 08/03/2014 00:29:54 81.28,-140.71 66.38 08/03/2014 00:30:10 81.27,-140.75 66.38 0.88 16
2 08/03/2014 01:20:34 -81.29, 27.08 113.56 08/03/2014 01:19:36 -81.29, 27.20 113.57 2.08 58
3 08/05/2014 20:04:18 81.28, -74.15 67.15 08/05/2014 20:04:28 81.28, -74.22 67.15 1.15 10
4 08/05/2014 20:54:59 -81.28, 93.28 112.83 08/05/2014 20:53:55 -81.28, 93.38 112.86 1.80 64
5 08/08/2014 15:38:42 81.28, -7.62 67.96 08/08/2014 15:38:46 81.28, -7.81 67.93 3.22 4
6 08/0
